Stations météo

Publicité
Aurillac, France (7549): Température de l'air & dewpoint: 11.12.2017 03:00:00 - 17.12.2017 03:00:00 (CET)Aurillac, France (7549): Température de l'air 5cm: 11.12.2017 03:00:00 - 17.12.2017 03:00:00 (CET)Aurillac, France (7549): Température de l'air -20cm & Température de l'air -100cm: 11.12.2017 03:00:00 - 17.12.2017 03:00:00 (CET)Aurillac, France (7549): Vitesse du vent & gusts: 11.12.2017 03:00:00 - 17.12.2017 03:00:00 (CET)Aurillac, France (7549): Direction du vent: 11.12.2017 03:00:00 - 17.12.2017 03:00:00 (CET)Aurillac, France (7549): reduced air pressure: 11.12.2017 03:00:00 - 17.12.2017 03:00:00 (CET)Aurillac, France (7549): visibility: 11.12.2017 03:00:00 - 17.12.2017 03:00:00 (CET)Aurillac, France (7549): Ensoleillement: 11.12.2017 03:00:00 - 17.12.2017 03:00:00 (CET)Aurillac, France (7549): Quantités de précipitations: 11.12.2017 03:00:00 - 17.12.2017 03:00:00 (CET)
Date & Time tt [°C] td [°C] tt 5cm [°C] tt -20cm [°C] tt -100cm [°C] ff [km/h] ff [knt] fx [km/h] fx [knt] dd ppp [hPa] vv [km] sd [min] rr [mm]
17.12.2017 03:00:00 -1,8 -2,4 -5,0 5,5 9,1 8 4 17 9 NW 1028,1 11 0 0,0
17.12.2017 02:00:00 -0,9 -1,5 -1,8 5,5 9,1 11 6 19 10 NNW 1027,4 14 0 0,0
17.12.2017 01:00:00 -0,3 -1,0 -0,7 5,5 9,1 10 6 21 11 NW 1027,1 18 0 0,2
17.12.2017 00:00:00 -0,4 -0,7 -1,1 5,5 9,1 8 5 16 8 WNW 1026,9 1,9 0 0,2
16.12.2017 23:00:00 -0,7 -1,3 -1,5 5,5 9,1 3 2 13 7 NW 1026,8 14 0 0,0
16.12.2017 22:00:00 -0,6 -1,0 -2,9 5,6 9,1 9 5 17 9 NNW 1026,6 16 0 0,2
16.12.2017 21:00:00 -0,3 -1,3 -1,5 5,6 9,1 9 5 14 7 NNW 1025,8 20 0 0,2
16.12.2017 20:00:00 0,1 -0,8 -3,1 5,6 9,1 10 5 20 11 NW 1025,1 31 0 0,0
16.12.2017 19:00:00 -0,9 -1,7 -4,3 5,6 9,1 5 3 18 10 WNW 1024,4 29 0 0,4
16.12.2017 18:00:00 -0,3 -1,0 -1,8 5,6 9,1 10 5 20 11 NW 1023,1 48 0 0,6
16.12.2017 17:00:00 0,0 -0,4 -0,7 5,6 9,1 12 7 23 12 NNW 1022,1 7 5 1,2
16.12.2017 16:00:00 0,0 -0,4 0,1 5,6 9,1 13 7 29 16 NW 1021,6 49 0 1,0
16.12.2017 15:00:00 0,4 -0,3 0,2 5,6 9,1 16 9 33 18 N 1020,5 1,0 2 0,2
16.12.2017 14:00:00 1,4 -0,1 1,4 5,6 9,1 13 7 27 15 NNW 1019,9 6 0 0,0
16.12.2017 13:00:00 2,1 -0,3 2,8 5,6 9,1 22 12 32 17 NW 1019,5 60 13 0,0
16.12.2017 12:00:00 1,4 0,1 1,6 5,6 9,1 17 9 27 15 NW 1019,3 17 0 0,0
16.12.2017 11:00:00 0,8 0,1 0,6 5,6 9,1 17 9 29 16 NW 1019,2 6 1 0,0
16.12.2017 10:00:00 0,3 -0,6 0,2 5,7 9,1 16 9 27 15 WNW 1018,3 13 2 0,0
16.12.2017 09:00:00 0,2 -0,7 0,1 5,7 9,1 14 8 26 14 NW 1017,0 15 0 0,0
16.12.2017 08:00:00 0,1 -0,6 0,1 5,7 9,1 14 8 28 15 NW 1016,1 14 0 0,0
16.12.2017 07:00:00 0,0 -0,6 0,1 5,8 9,1 16 9 27 14 WNW 1015,3 13 0 0,0
16.12.2017 06:00:00 0,1 -0,6 -0,1 5,8 9,1 19 10 28 15 WNW 1014,4 15 0 0,0
16.12.2017 05:00:00 0,0 -0,9 -0,4 5,8 9,1 15 8 31 17 WNW 1014,0 20 0 0,0
16.12.2017 04:00:00 -0,1 -0,7 -1,5 5,9 9,1 17 9 30 16 WNW 1013,6 18 0 0,0
16.12.2017 03:00:00 -0,3 -1,0 -1,2 5,9 9,1 10 6 21 12 WNW 1013,0 20 0 0,0
16.12.2017 02:00:00 0,1 -0,9 -0,6 5,9 9,1 13 7 33 18 WNW 1012,1 20 0 0,0
16.12.2017 01:00:00 0,8 -0,4 0,2 5,9 9,1 18 10 30 16 WNW 1011,3 43 0 0,0
16.12.2017 00:00:00 1,0 0,0 0,4 6,0 9,1 16 8 26 14 NW 1010,5 44 0 0,0
15.12.2017 23:00:00 1,2 -0,1 0,3 6,0 9,1 14 8 34 19 NW 1009,7 56 0 0,0
15.12.2017 22:00:00 1,8 0,6 1,4 6,0 9,1 14 8 26 14 NW 1008,8 56 0 0,0
15.12.2017 21:00:00 1,5 1,4 1,0 6,0 9,1 11 6 26 14 WNW 1008,4 18 0 0,2
15.12.2017 20:00:00 1,2 1,1 0,9 6,0 9,1 14 7 27 15 NW 1007,7 0,4 0 0,0
15.12.2017 19:00:00 0,8 0,5 0,4 6,0 9,1 14 8 23 12 WNW 1007,1 11 0 0,0
15.12.2017 18:00:00 0,6 0,2 0,3 6,0 9,1 10 5 21 12 NW 1005,6 8 0 1,8
15.12.2017 17:00:00 2,2 1,5 1,9 6,0 9,1 10 6 25 13 SW 1003,4 7 0 1,8
15.12.2017 16:00:00 3,4 2,2 3,2 6,0 9,1 13 7 25 14 SW 1003,9 19 0 0,6
15.12.2017 15:00:00 3,5 2,3 3,3 6,0 9,1 16 8 30 16 WSW 1004,6 18 0 0,0
15.12.2017 14:00:00 2,9 2,2 2,3 6,0 9,1 14 8 26 14 W 1005,7 6 0 1,4
15.12.2017 13:00:00 3,7 2,1 4,1 6,0 9,1 14 8 27 15 WSW 1006,1 55 7 0,0
15.12.2017 12:00:00 3,4 2,4 3,2 6,0 9,1 14 8 22 12 WSW 1006,9 10 1 0,0
15.12.2017 11:00:00 2,9 2,0 2,9 6,1 9,1 13 7 25 14 W 1007,9 16 0 0,0
15.12.2017 10:00:00 2,6 2,0 2,3 6,1 9,1 11 6 29 16 W 1007,6 16 0 0,2
15.12.2017 09:00:00 2,2 1,8 1,8 6,1 9,1 6 3 13 7 SW 1007,1 20 0 0,0
15.12.2017 08:00:00 2,2 1,9 1,1 6,1 9,1 9 5 15 8 W 1006,7 8 0 0,4
15.12.2017 07:00:00 1,9 1,6 1,5 6,1 9,1 5 3 10 5 SW 1006,3 6 0 0,4
15.12.2017 06:00:00 1,9 1,6 1,5 6,1 9,2 3 1 10 5 SW 1006,3 17 0 0,0
15.12.2017 05:00:00 1,5 1,2 1,3 6,1 9,1 3 2 10 5 W 1006,4 16 0 0,4
15.12.2017 04:00:00 1,6 1,2 0,7 6,1 9,1 9 5 24 13 W 1006,9 20 0 0,9
15.12.2017 03:00:00 1,7 1,1 1,2 6,1 9,1 10 5 27 15 WNW 1007,2 7 0 0,6
15.12.2017 02:00:00 2,1 1,4 1,8 6,1 9,1 22 12 50 27 NW 1007,1 9 0 2,6
15.12.2017 01:00:00 4,1 3,4 2,5 6,1 9,2 25 14 65 35 W 1005,9 9 0 2,2
15.12.2017 00:00:00 6,2 4,0 5,4 6,1 9,1 28 15 60 32 WSW 1004,9 20 0 0,2
14.12.2017 23:00:00 6,0 4,6 5,3 6,1 9,1 28 15 55 30 W 1005,5 7 0 1,0
14.12.2017 22:00:00 6,0 4,6 5,1 6,1 9,2 22 12 59 32 W 1006,1 8 0 1,8
14.12.2017 21:00:00 6,4 5,2 5,5 6,0 9,1 23 12 40 22 WSW 1006,3 7 0 0,6
14.12.2017 20:00:00 6,3 4,8 5,5 6,0 9,2 19 10 58 32 WSW 1007,3 20 0 0,6
14.12.2017 19:00:00 7,2 4,8 6,5 6,0 9,1 23 13 44 24 WSW 1006,9 18 0 0,0
14.12.2017 18:00:00 7,5 4,8 6,4 5,9 9,1 24 13 45 24 WSW 1007,6 19 0 0,0
14.12.2017 17:00:00 7,5 4,8 6,5 5,9 9,2 19 11 38 20 SW 1007,8 20 0 0,0
14.12.2017 16:00:00 7,5 5,3 7,1 5,8 9,1 21 12 50 27 SW 1008,1 19 0 0,0
14.12.2017 15:00:00 7,7 5,2 8,0 5,8 9,2 23 12 46 25 SW 1008,5 19 10 0,0
14.12.2017 14:00:00 8,5 5,4 7,3 5,8 9,2 24 13 42 23 SW 1009,6 18 11 0,0
14.12.2017 13:00:00 7,8 5,1 7,5 5,8 9,2 27 15 45 24 WSW 1011,1 18 22 0,0
14.12.2017 12:00:00 7,3 5,3 7,2 5,7 9,2 21 11 37 20 WSW 1012,3 14 2 0,0
14.12.2017 11:00:00 7,1 5,4 6,4 5,7 9,2 24 13 41 22 WSW 1012,9 13 0 0,0
14.12.2017 10:00:00 6,5 5,4 5,8 5,6 9,2 21 11 36 19 WSW 1013,6 11 0 0,2
14.12.2017 09:00:00 6,2 4,8 4,7 5,7 9,2 18 10 32 17 WSW 1014,0 13 0 0,0
14.12.2017 08:00:00 5,7 4,3 4,6 5,6 9,2 15 8 29 15 WSW 1014,0 17 0 0,0
14.12.2017 07:00:00 6,3 5,7 6,0 5,6 9,2 13 7 22 12 WSW 1013,4 10 0 0,4
14.12.2017 06:00:00 6,5 5,6 6,0 5,6 9,2 11 6 23 13 W 1013,5 18 0 0,0
14.12.2017 05:00:00 6,3 5,7 6,1 5,5 9,2 8 4 19 10 W 1013,7 7 0 1,1
14.12.2017 04:00:00 6,6 6,2 6,3 5,5 9,2 6 3 25 14 W 1014,3 9 0 1,4
14.12.2017 03:00:00 6,7 6,1 6,4 5,5 9,2 16 8 40 21 W 1014,0 14 0 1,0
14.12.2017 02:00:00 6,9 6,5 6,6 5,5 9,2 16 9 32 17 WNW 1013,8 3,0 0 2,2
14.12.2017 01:00:00 7,1 6,4 6,6 5,5 9,2 11 6 38 20 W 1013,9 6 0 0,2
14.12.2017 00:00:00 6,8 6,4 5,9 5,4 9,2 20 11 32 17 WSW 1013,6 35 0 0,4
13.12.2017 23:00:00 6,1 5,8 5,5 5,4 9,2 16 9 39 21 WSW 1013,7 3,2 0 0,6
13.12.2017 22:00:00 5,6 5,2 5,1 5,4 9,2 21 11 40 21 SW 1013,4 2,5 0 0,8
13.12.2017 21:00:00 5,3 4,9 5,0 5,4 9,2 19 10 33 18 SW 1013,9 3,6 0 0,8
13.12.2017 20:00:00 5,2 4,6 4,3 5,4 9,2 15 8 28 15 SSW 1014,3 3,5 0 1,0
13.12.2017 19:00:00 4,4 4,1 3,6 5,3 9,2 9 5 21 11 SSE 1014,9 5 0 0,6
13.12.2017 18:00:00 3,6 3,2 3,3 5,4 9,2 9 5 22 12 SE 1015,8 7 0 0,2
13.12.2017 17:00:00 3,5 3,1 3,2 5,3 9,2 13 7 22 12 S 1016,5 4,8 0 0,2
13.12.2017 16:00:00 3,1 2,5 3,0 5,3 9,2 10 5 22 12 S 1017,2 12 0 0,8
13.12.2017 15:00:00 2,9 2,0 2,8 5,4 9,2 14 8 29 16 S 1017,7 15 0 0,2
13.12.2017 14:00:00 3,1 1,8 3,2 5,4 9,2 16 9 24 13 S 1018,2 14 0 0,2
13.12.2017 13:00:00 2,4 1,4 2,0 5,4 9,2 8 4 16 9 E 1019,6 15 0 0,2
13.12.2017 12:00:00 1,8 0,6 1,5 5,4 9,2 9 5 19 10 ESE 1020,7 12 0 0,0
13.12.2017 11:00:00 1,3 0,3 1,2 5,4 9,2 11 6 16 9 E 1021,3 17 0 0,0
13.12.2017 10:00:00 0,9 -0,1 0,2 5,4 9,2 11 6 18 10 E 1021,5 18 0 0,0
13.12.2017 09:00:00 0,3 -0,4 -0,4 5,5 9,2 8 5 16 9 E 1022,5 15 0 0,0
13.12.2017 08:00:00 0,1 -0,6 -0,4 5,5 9,2 9 5 14 8 E 1022,6 14 0 0,0
13.12.2017 07:00:00 -0,2 -0,9 -0,6 5,5 9,2 8 4 13 7 E 1022,6 16 0 0,0
13.12.2017 06:00:00 -0,5 -1,1 -0,7 5,6 9,2 9 5 18 10 E 1022,7 17 0 0,0
13.12.2017 05:00:00 -0,7 -1,3 -0,9 5,6 9,2 11 6 16 8 E 1023,3 12 0 0,0
13.12.2017 04:00:00 -0,9 -1,3 -1,2 5,6 9,2 10 5 16 9 E 1023,4 7 0 0,2
13.12.2017 03:00:00 -1,2 -1,5 -1,2 5,6 9,2 12 7 16 9 E 1023,6 10 0 0,6
13.12.2017 02:00:00 -1,0 -1,4 -1,4 5,7 9,2 9 5 13 7 E 1023,5 1,6 0 0,2
13.12.2017 01:00:00 -1,3 -2,1 -2,2 5,7 9,2 9 5 14 8 E 1023,9 7 0 0,0
13.12.2017 00:00:00 -1,7 -2,1 -3,8 5,8 9,2 9 5 12 7 E 1024,0 6 0 0,0
12.12.2017 23:00:00 -2,0 -2,7 -3,9 5,8 9,2 4 2 9 5 SE 1023,6 0,3 0 0,0
12.12.2017 22:00:00 -2,1 -2,5 -7,1 5,8 9,2 2 1 8 4 SSE 1023,6 6 0 0,0
12.12.2017 21:00:00 -1,9 -2,5 -5,7 5,8 9,2 4 2 9 5 ESE 1022,9 8 0 0,0
12.12.2017 20:00:00 -1,7 -2,4 -5,4 5,8 9,3 7 4 8 4 ESE 1022,3 12 0 0,0
12.12.2017 19:00:00 -1,0 -2,3 -5,2 5,8 9,3 2 1 5 3 NW 1021,7 12 0 0,0
12.12.2017 18:00:00 0,1 -2,0 -3,7 5,8 9,2 4 2 10 6 SW 1020,4 18 0 0,0
12.12.2017 17:00:00 1,3 -1,9 -0,6 5,8 9,3 8 5 17 9 W 1019,2 59 25 0,0
12.12.2017 16:00:00 3,7 -1,3 1,4 5,8 9,3 5 3 17 9 NNW 1017,5 60 23 0,0
12.12.2017 15:00:00 3,1 -1,3 3,4 5,7 9,3 15 8 22 12 NW 1017,3 60 41 0,0
12.12.2017 14:00:00 4,0 -0,4 6,0 5,7 9,3 14 8 26 14 W 1016,3 60 40 0,0
12.12.2017 13:00:00 3,8 0,1 5,2 5,7 9,3 13 7 23 13 WNW 1015,8 60 39 0,0
12.12.2017 12:00:00 3,8 1,5 6,0 5,8 9,3 12 7 16 9 W 1015,6 20 60 0,0
12.12.2017 11:00:00 2,9 0,6 3,9 5,8 9,3 7 4 12 7 WNW 1014,9 48 58 0,0
12.12.2017 10:00:00 1,9 0,0 0,5 5,8 9,3 6 4 18 10 NNW 1014,1 42 21 0,0
12.12.2017 09:00:00 0,4 -0,2 0,5 5,8 9,3 13 7 23 12 NW 1013,3 19 0 0,0
12.12.2017 08:00:00 0,7 0,6 0,2 5,8 9,3 9 5 21 11 WNW 1012,0 14 0 0,0
12.12.2017 07:00:00 0,9 0,8 0,3 5,8 9,3 11 6 16 9 WNW 1010,5 15 0 0,0
12.12.2017 06:00:00 1,0 0,9 0,7 5,8 9,3 4 2 9 5 WSW 1008,5 17 0 0,0
12.12.2017 05:00:00 1,0 0,6 0,5 5,8 9,3 7 4 9 5 NW 1007,2 4,6 0 0,4
12.12.2017 04:00:00 1,7 1,4 1,8 5,8 9,3 6 3 10 5 NNW 1006,0 13 0 0,0
12.12.2017 03:00:00 2,0 1,7 1,7 5,8 9,3 7 4 10 5 W 1004,9 17 0 0,4
12.12.2017 02:00:00 2,0 1,6 2,0 5,8 9,3 6 3 15 8 WSW 1003,7 8 0 0,6
12.12.2017 01:00:00 2,4 1,8 2,3 5,8 9,3 11 6 18 10 W 1002,6 11 0 0,4
12.12.2017 00:00:00 2,9 2,0 2,6 5,8 9,3 15 8 35 19 W 1001,0 13 0 0,6
11.12.2017 23:00:00 3,4 3,1 2,9 5,9 9,3 6 4 13 7 SW 999,5 7 0 0,4
11.12.2017 22:00:00 3,0 2,4 2,9 5,9 9,3 8 4 31 17 WNW 998,2 20 0 0,6
11.12.2017 21:00:00 3,3 3,0 2,6 5,8 9,3 7 4 13 7 W 995,9 11 0 1,0
11.12.2017 20:00:00 2,8 2,1 2,6 5,8 9,3 4 2 24 13 SSW 994,7 5 0 1,2
11.12.2017 19:00:00 3,8 2,9 3,5 5,8 9,3 13 7 37 20 W 993,1 3,0 0 2,6
11.12.2017 18:00:00 4,4 3,5 3,9 5,8 9,3 16 9 29 16 SW 991,6 10 0 0,2
11.12.2017 17:00:00 4,2 3,3 4,0 5,8 9,3 13 7 29 16 SSW 990,7 14 0 0,2
11.12.2017 16:00:00 4,4 3,5 4,3 5,8 9,3 16 8 32 18 SSW 990,0 19 0 0,6
11.12.2017 15:00:00 4,5 3,3 4,1 5,7 9,3 14 8 37 20 SW 989,4 12 0 0,6
11.12.2017 14:00:00 4,8 3,6 4,0 5,7 9,3 19 11 45 25 WSW 988,6 15 0 1,4
11.12.2017 13:00:00 5,4 3,7 4,6 5,7 9,3 21 11 42 23 WSW 988,0 10 0 0,6
11.12.2017 12:00:00 5,4 4,4 5,1 5,7 9,4 16 9 35 19 WSW 987,6 4,3 0 1,2
11.12.2017 11:00:00 5,9 4,7 5,3 5,7 9,4 9 5 22 12 SSW 987,7 60 0 0,8
11.12.2017 10:00:00 5,5 4,3 4,5 5,6 9,4 12 7 32 17 WSW 987,2 17 0 0,5
11.12.2017 09:00:00 5,2 3,5 4,5 5,6 9,4 20 11 45 24 WSW 986,9 16 0 1,6
11.12.2017 08:00:00 6,5 5,6 6,0 5,6 9,4 18 10 31 17 SW 985,0 6 0 2,4
11.12.2017 07:00:00 7,0 5,9 6,5 5,5 9,4 18 10 39 21 SW 984,4 6 0 1,4
11.12.2017 06:00:00 9,0 6,1 7,4 5,5 9,4 15 8 34 19 S 982,4 33 0 0,4
11.12.2017 05:00:00 8,9 6,2 7,6 5,4 9,4 19 10 40 21 SE 981,5 47 0 0,0
11.12.2017 04:00:00 8,8 6,2 7,5 5,4 9,4 23 12 44 24 ESE 981,3 60 0 0,2
11.12.2017 03:00:00 8,9 6,5 7,8 5,4 9,4 25 14 42 23 SE 983,0 57 0 0,0

tt = Température de l'air
td = dewpoint
tt 5cm = Température de l'air 5cm
tt -20cm = Température de l'air -20cm
tt -100cm = Température de l'air -100cm
ff = Vitesse du vent
fx = gusts
dd = Direction du vent
ppp = reduced air pressure
vv = visibility
sd = Ensoleillement
rr = Quantités de précipitations

stations d'obs. à proximité